| time (UTC) | temp F | wind direction | speed MPH | gust MPH | rain 1hr in | rain 24hr in | rain mn in | humidity % | barometer mb |
| 20260901222428 | 69 | 34 | 1.0 | 2.0 | 0.00 | 0.00 | 0.00 | 72 | 1009.4 |
| 20260901221924 | 69 | 135 | 5.0 | 7.0 | 0.00 | 0.00 | 0.00 | 71 | 1009.3 |
| 20260901221419 | 70 | 40 | 4.0 | 6.0 | 0.00 | 0.00 | 0.00 | 72 | 1009.3 |
| 20260901220914 | 70 | 224 | 3.0 | 5.0 | 0.00 | 0.00 | 0.00 | 72 | 1009.4 |
| 20260901220413 | 70 | 126 | 4.0 | 7.0 | 0.00 | 0.00 | 0.00 | 72 | 1009.5 |
| 20260901215912 | 70 | 304 | 1.0 | 2.0 | 0.00 | 0.00 | 0.00 | 72 | 1009.5 |
| 20260901215410 | 70 | 191 | 4.0 | 6.0 | 0.00 | 0.00 | 0.00 | 73 | 1009.3 |
| 20260901214910 | 70 | 115 | 5.0 | 7.0 | 0.00 | 0.00 | 0.00 | 71 | 1009.5 |
| 20260901214409 | 70 | 223 | 1.0 | 2.0 | 0.00 | 0.00 | 0.00 | 70 | 1009.3 |
| 20260901213908 | 71 | 139 | 3.0 | 5.0 | 0.00 | 0.00 | 0.00 | 69 | 1009.4 |
| 20260901213403 | 71 | 137 | 4.0 | 5.0 | 0.00 | 0.00 | 0.00 | 69 | 1009.5 |
| 20260901212902 | 72 | 158 | 2.0 | 2.0 | 0.00 | 0.00 | 0.00 | 68 | 1009.5 |
| 20260901212358 | 72 | 209 | 6.0 | 8.0 | 0.00 | 0.00 | 0.00 | 65 | 1009.3 |
| 20260901211854 | 73 | 39 | 2.0 | 3.0 | 0.00 | 0.00 | 0.00 | 64 | 1009.1 |
| 20260901211350 | 73 | 166 | 4.0 | 6.0 | 0.00 | 0.00 | 0.00 | 65 | 1009.3 |
| 20260901210846 | 74 | 110 | 4.0 | 5.0 | 0.00 | 0.00 | 0.00 | 65 | 1009.2 |
| 20260901210341 | 74 | 229 | 2.0 | 5.0 | 0.00 | 0.00 | 0.00 | 65 | 1009.0 |
| 20260901205837 | 74 | 178 | 2.0 | 5.0 | 0.00 | 0.00 | 0.00 | 67 | 1009.4 |
| 20260901205337 | 74 | 302 | 0.0 | 1.0 | 0.00 | 0.00 | 0.00 | 65 | 1009.4 |
| 20260901204832 | 73 | 101 | 5.0 | 7.0 | 0.00 | 0.00 | 0.00 | 65 | 1009.4 |
| 20260901204329 | 74 | 320 | 0.0 | 1.0 | 0.00 | 0.00 | 0.00 | 66 | 1009.6 |
| 20260901203824 | 74 | 268 | 1.0 | 1.0 | 0.00 | 0.00 | 0.00 | 68 | 1009.4 |
| 20260901203323 | 73 | 182 | 4.0 | 5.0 | 0.00 | 0.00 | 0.00 | 63 | 1009.3 |
| 20260901202818 | 73 | 25 | 0.0 | 0.0 | 0.00 | 0.00 | 0.00 | 65 | 1009.5 |
| 20260901202313 | 73 | 289 | 3.0 | 3.0 | 0.00 | 0.00 | 0.00 | 64 | 1009.6 |
| 20260901201809 | 75 | 190 | 1.0 | 1.0 | 0.00 | 0.00 | 0.00 | 63 | 1009.4 |
| 20260901201309 | 74 | 324 | 3.0 | 3.0 | 0.00 | 0.00 | 0.00 | 62 | 1009.6 |
| 20260901200809 | 73 | 316 | 1.0 | 2.0 | 0.00 | 0.00 | 0.00 | 64 | 1009.3 |
| 20260901200304 | 73 | 49 | 2.0 | 3.0 | 0.00 | 0.00 | 0.00 | 63 | 1009.4 |
| 20260901195802 | 73 | 12 | 3.0 | 3.0 | 0.00 | 0.00 | 0.00 | 64 | 1009.6 |
| 20260901195255 | 74 | 35 | 2.0 | 3.0 | 0.00 | 0.00 | 0.00 | 61 | 1009.4 |
| 20260901194751 | 73 | 319 | 0.0 | 0.0 | 0.00 | 0.00 | 0.00 | 62 | 1009.6 |
| 20260901194246 | 73 | 323 | 0.0 | 0.0 | 0.00 | 0.00 | 0.00 | 64 | 1009.5 |
| 20260901193742 | 73 | 198 | 1.0 | 2.0 | 0.00 | 0.00 | 0.00 | 64 | 1009.5 |
| 20260901193240 | 73 | 284 | 1.0 | 2.0 | 0.00 | 0.00 | 0.00 | 68 | 1009.9 |
| 20260901192736 | 74 | 250 | 1.0 | 2.0 | 0.00 | 0.00 | 0.00 | 64 | 1009.7 |
| 20260901192231 | 73 | 253 | 2.0 | 2.0 | 0.00 | 0.00 | 0.00 | 66 | 1009.6 |
| 20260901191727 | 72 | 316 | 0.0 | 0.0 | 0.00 | 0.00 | 0.00 | 69 | 1009.8 |
| 20260901191223 | 71 | 13 | 1.0 | 1.0 | 0.00 | 0.00 | 0.00 | 68 | 1009.7 |
| 20260901190718 | 72 | 303 | 0.0 | 1.0 | 0.00 | 0.00 | 0.00 | 66 | 1009.8 |
| 20260901190218 | 72 | 1 | 0.0 | 0.0 | 0.00 | 0.00 | 0.00 | 68 | 1009.8 |
| 20260901185716 | 72 | 222 | 1.0 | 1.0 | 0.00 | 0.00 | 0.00 | 68 | 1009.8 |
| 20260901185215 | 72 | 40 | 2.0 | 2.0 | 0.00 | 0.00 | 0.00 | 67 | 1009.8 |
| 20260901184711 | 72 | 26 | 2.0 | 3.0 | 0.00 | 0.00 | 0.00 | 67 | 1010.0 |
| 20260901184206 | 72 | 110 | 2.0 | 2.0 | 0.00 | 0.00 | 0.00 | 69 | 1010.2 |
| 20260901183702 | 71 | 280 | 0.0 | 0.0 | 0.00 | 0.00 | 0.00 | 70 | 1010.1 |
| 20260901183201 | 70 | 227 | 2.0 | 2.0 | 0.00 | 0.00 | 0.00 | 72 | 1010.3 |
| 20260901182658 | 71 | 340 | 4.0 | 7.0 | 0.00 | 0.00 | 0.00 | 69 | 1010.3 |
| 20260901182156 | 71 | 308 | 3.0 | 3.0 | 0.00 | 0.00 | 0.00 | 71 | 1010.3 |
| 20260901181652 | 71 | 197 | 3.0 | 3.0 | 0.00 | 0.00 | 0.00 | 72 | 1010.2 |
| 20260901181146 | 71 | 1 | 3.0 | 3.0 | 0.00 | 0.00 | 0.00 | 72 | 1010.4 |
| 20260901180646 | 71 | 168 | 3.0 | 3.0 | 0.00 | 0.00 | 0.00 | 72 | 1010.2 |
| 20260901180139 | 71 | 12 | 4.0 | 5.0 | 0.00 | 0.00 | 0.00 | 70 | 1010.3 |
| 20260901175638 | 72 | 303 | 0.0 | 0.0 | 0.00 | 0.00 | 0.00 | 72 | 1010.4 |
| 20260901175133 | 72 | 233 | 1.0 | 1.0 | 0.00 | 0.00 | 0.00 | 71 | 1010.3 |
| 20260901174629 | 71 | 101 | 3.0 | 3.0 | 0.00 | 0.00 | 0.00 | 71 | 1010.5 |
| 20260901174125 | 71 | 202 | 2.0 | 3.0 | 0.00 | 0.00 | 0.00 | 73 | 1010.3 |
| 20260901173620 | 71 | 280 | 2.0 | 2.0 | 0.00 | 0.00 | 0.00 | 73 | 1010.6 |
| 20260901173115 | 70 | 6 | 2.0 | 2.0 | 0.00 | 0.00 | 0.00 | 73 | 1010.3 |
| 20260901172611 | 69 | 31 | 2.0 | 2.0 | 0.00 | 0.00 | 0.00 | 72 | 1010.5 |
| 20260901172109 | 70 | 352 | 0.0 | 0.0 | 0.00 | 0.00 | 0.00 | 75 | 1010.5 |
| 20260901171608 | 70 | 13 | 1.0 | 1.0 | 0.00 | 0.00 | 0.00 | 72 | 1010.5 |
| 20260901171102 | 70 | 12 | 0.0 | 0.0 | 0.00 | 0.00 | 0.00 | 73 | 1010.6 |
| 20260901170601 | 67 | 356 | 0.0 | 0.0 | 0.00 | 0.00 | 0.00 | 77 | 1010.8 |
| 20260901170056 | 69 | 283 | 1.0 | 1.0 | 0.00 | 0.00 | 0.00 | 75 | 1010.8 |
| 20260901165550 | 69 | 122 | 2.0 | 2.0 | 0.00 | 0.00 | 0.00 | 76 | 1010.6 |
| 20260901165045 | 68 | 56 | 1.0 | 1.0 | 0.00 | 0.00 | 0.00 | 77 | 1010.7 |
| 20260901164541 | 67 | 168 | 1.0 | 2.0 | 0.00 | 0.00 | 0.00 | 79 | 1010.7 |
| 20260901164036 | 66 | 217 | 0.0 | 0.0 | 0.00 | 0.00 | 0.00 | 81 | 1011.0 |
| 20260901163532 | 66 | 64 | 1.0 | 1.0 | 0.00 | 0.00 | 0.00 | 83 | 1010.8 |
| 20260901163030 | 65 | 170 | 4.0 | 6.0 | 0.00 | 0.00 | 0.00 | 83 | 1010.8 |
| 20260901162526 | 64 | 252 | 0.0 | 0.0 | 0.00 | 0.00 | 0.00 | 87 | 1011.1 |
| 20260901162025 | 64 | 209 | 1.0 | 1.0 | 0.00 | 0.00 | 0.00 | 88 | 1011.0 |
| 20260901161524 | 64 | 4 | 1.0 | 2.0 | 0.00 | 0.00 | 0.00 | 87 | 1011.1 |
| 20260901161024 | 64 | 125 | 2.0 | 2.0 | 0.00 | 0.00 | 0.00 | 84 | 1011.0 |
| 20260901160520 | 64 | 195 | 2.0 | 3.0 | 0.00 | 0.00 | 0.00 | 86 | 1010.8 |
| 20260901160015 | 63 | 19 | 2.0 | 3.0 | 0.00 | 0.00 | 0.00 | 87 | 1010.7 |
| 20260901155514 | 62 | 149 | 3.0 | 3.0 | 0.00 | 0.00 | 0.00 | 88 | 1010.8 |
| 20260901155010 | 62 | 164 | 4.0 | 5.0 | 0.00 | 0.00 | 0.00 | 90 | 1011.1 |
| 20260901154509 | 61 | 142 | 4.0 | 5.0 | 0.00 | 0.00 | 0.00 | 90 | 1010.8 |
| 20260901154004 | 60 | 166 | 3.0 | 3.0 | 0.00 | 0.00 | 0.00 | 93 | 1011.2 |
| 20260901153459 | 59 | 284 | 1.0 | 2.0 | 0.00 | 0.00 | 0.00 | 98 | 1011.0 |
| 20260901152958 | 58 | 342 | 0.0 | 0.0 | 0.00 | 0.00 | 0.00 | 99 | 1011.1 |
| 20260901152453 | 57 | 341 | 0.0 | 1.0 | 0.00 | 0.00 | 0.00 | 99 | 1011.1 |
| 20260901151952 | 57 | 290 | 0.0 | 1.0 | 0.00 | 0.00 | 0.00 | 99 | 1011.4 |
| 20260901151448 | 56 | 1 | 1.0 | 2.0 | 0.00 | 0.00 | 0.00 | 99 | 1011.4 |
| 20260901150947 | 56 | 236 | 3.0 | 3.0 | 0.00 | 0.00 | 0.00 | 99 | 1011.4 |
| 20260901150445 | 55 | 276 | 0.0 | 1.0 | 0.00 | 0.00 | 0.00 | 99 | 1011.4 |
| 20260901145942 | 54 | 329 | 0.0 | 0.0 | 0.00 | 0.00 | 0.00 | 99 | 1011.5 |
| 20260901145437 | 54 | 329 | 0.0 | 0.0 | 0.00 | 0.00 | 0.00 | 99 | 1011.3 |
| 20260901144931 | 54 | 280 | 3.0 | 3.0 | 0.00 | 0.00 | 0.00 | 99 | 1011.5 |
| 20260901144427 | 53 | 223 | 3.0 | 3.0 | 0.00 | 0.00 | 0.00 | 99 | 1011.3 |
| 20260901143922 | 53 | 353 | 0.0 | 0.0 | 0.00 | 0.00 | 0.00 | 99 | 1011.0 |
| 20260901143419 | 53 | 345 | 0.0 | 0.0 | 0.00 | 0.00 | 0.00 | 99 | 1011.3 |
| 20260901142915 | 53 | 346 | 0.0 | 0.0 | 0.00 | 0.00 | 0.00 | 99 | 1011.2 |
| 20260901142414 | 53 | 319 | 0.0 | 0.0 | 0.00 | 0.00 | 0.00 | 99 | 1011.3 |
| 20260901141909 | 53 | 348 | 0.0 | 0.0 | 0.00 | 0.00 | 0.00 | 99 | 1011.1 |
| 20260901141404 | 53 | 340 | 0.0 | 0.0 | 0.00 | 0.00 | 0.00 | 99 | 1011.1 |
| 20260901140903 | 53 | 341 | 0.0 | 0.0 | 0.00 | 0.00 | 0.00 | 99 | 1010.7 |
| 20260901140402 | 53 | 341 | 0.0 | 0.0 | 0.00 | 0.00 | 0.00 | 99 | 1010.7 |
| 20260901135856 | 54 | 318 | 0.0 | 0.0 | 0.00 | 0.00 | 0.00 | 99 | 1010.5 |
| 20260901135351 | 54 | 318 | 0.0 | 0.0 | 0.00 | 0.00 | 0.00 | 99 | 1010.3 |
| 20260901134847 | 54 | 332 | 0.0 | 0.0 | 0.00 | 0.00 | 0.00 | 99 | 1010.2 |
| 20260901134342 | 54 | 344 | 0.0 | 0.0 | 0.00 | 0.00 | 0.00 | 99 | 1010.4 |
| 20260901133837 | 54 | 341 | 0.0 | 0.0 | 0.00 | 0.00 | 0.00 | 99 | 1010.3 |
| 20260901133336 | 54 | 343 | 0.0 | 0.0 | 0.00 | 0.00 | 0.00 | 99 | 1010.3 |
| 20260901132835 | 53 | 348 | 0.0 | 0.0 | 0.00 | 0.00 | 0.00 | 99 | 1010.4 |
| 20260901132329 | 53 | 347 | 0.0 | 1.0 | 0.00 | 0.00 | 0.00 | 99 | 1010.4 |
| 20260901131824 | 53 | 309 | 0.0 | 0.0 | 0.00 | 0.00 | 0.00 | 99 | 1010.2 |
| 20260901131323 | 53 | 4 | 0.0 | 0.0 | 0.00 | 0.00 | 0.00 | 99 | 1010.2 |
| 20260901130819 | 53 | 8 | 1.0 | 1.0 | 0.00 | 0.00 | 0.00 | 99 | 1010.0 |
| 20260901130319 | 53 | 11 | 0.0 | 1.0 | 0.00 | 0.00 | 0.00 | 99 | 1010.2 |
| 20260901125816 | 53 | 331 | 0.0 | 1.0 | 0.00 | 0.00 | 0.00 | 99 | 1010.1 |
| 20260901125311 | 53 | 170 | 1.0 | 2.0 | 0.00 | 0.00 | 0.00 | 99 | 1009.9 |
| 20260901124806 | 52 | 15 | 1.0 | 1.0 | 0.00 | 0.00 | 0.00 | 99 | 1010.3 |
| 20260901124301 | 52 | 165 | 4.0 | 5.0 | 0.00 | 0.00 | 0.00 | 99 | 1010.3 |
| 20260901123800 | 52 | 261 | 1.0 | 1.0 | 0.00 | 0.00 | 0.00 | 99 | 1010.3 |
| 20260901123255 | 52 | 5 | 0.0 | 0.0 | 0.00 | 0.00 | 0.00 | 99 | 1010.2 |
| 20260901122754 | 53 | 222 | 2.0 | 2.0 | 0.00 | 0.00 | 0.00 | 99 | 1010.3 |
| 20260901122249 | 53 | 23 | 1.0 | 1.0 | 0.00 | 0.00 | 0.00 | 99 | 1010.4 |
| 20260901121748 | 52 | 329 | 0.0 | 0.0 | 0.00 | 0.00 | 0.00 | 99 | 1010.5 |
| 20260901121244 | 52 | 335 | 0.0 | 0.0 | 0.00 | 0.00 | 0.00 | 99 | 1010.4 |
| 20260901120743 | 52 | 296 | 1.0 | 1.0 | 0.00 | 0.00 | 0.00 | 99 | 1010.7 |
| 20260901120238 | 52 | 330 | 0.0 | 0.0 | 0.00 | 0.00 | 0.00 | 99 | 1010.5 |
| 20260901115734 | 52 | 328 | 0.0 | 0.0 | 0.00 | 0.00 | 0.00 | 99 | 1010.6 |
| 20260901115229 | 52 | 328 | 0.0 | 0.0 | 0.00 | 0.00 | 0.00 | 99 | 1010.4 |
| 20260901114726 | 52 | 332 | 0.0 | 0.0 | 0.00 | 0.00 | 0.00 | 99 | 1010.4 |
| 20260901114221 | 52 | 332 | 0.0 | 0.0 | 0.00 | 0.00 | 0.00 | 99 | 1010.3 |
| 20260901113719 | 52 | 331 | 0.0 | 0.0 | 0.00 | 0.00 | 0.00 | 99 | 1010.4 |
| 20260901113215 | 52 | 329 | 0.0 | 0.0 | 0.00 | 0.00 | 0.00 | 99 | 1010.6 |
| 20260901112714 | 52 | 337 | 0.0 | 0.0 | 0.00 | 0.00 | 0.00 | 99 | 1010.3 |
| 20260901112209 | 52 | 338 | 0.0 | 0.0 | 0.00 | 0.00 | 0.00 | 99 | 1010.5 |
| 20260901111709 | 52 | 331 | 0.0 | 0.0 | 0.00 | 0.00 | 0.00 | 99 | 1010.4 |
| 20260901111208 | 52 | 331 | 0.0 | 0.0 | 0.00 | 0.00 | 0.00 | 99 | 1010.5 |
| 20260901110702 | 53 | 314 | 0.0 | 0.0 | 0.00 | 0.00 | 0.00 | 99 | 1010.4 |
| 20260901110157 | 52 | 277 | 0.0 | 1.0 | 0.00 | 0.00 | 0.00 | 99 | 1010.6 |
| 20260901105654 | 52 | 331 | 0.0 | 0.0 | 0.00 | 0.00 | 0.00 | 99 | 1010.7 |
| 20260901105153 | 52 | 336 | 0.0 | 0.0 | 0.00 | 0.00 | 0.00 | 99 | 1010.5 |
| 20260901104650 | 53 | 345 | 0.0 | 0.0 | 0.00 | 0.00 | 0.00 | 99 | 1010.6 |
| 20260901104145 | 52 | 344 | 0.0 | 0.0 | 0.00 | 0.00 | 0.00 | 99 | 1010.5 |
| 20260901103644 | 53 | 337 | 0.0 | 0.0 | 0.00 | 0.00 | 0.00 | 99 | 1010.8 |
| 20260901103140 | 53 | 343 | 0.0 | 0.0 | 0.00 | 0.00 | 0.00 | 99 | 1010.6 |
| 20260901102640 | 53 | 349 | 0.0 | 0.0 | 0.00 | 0.00 | 0.00 | 99 | 1010.5 |
| 20260901102139 | 53 | 328 | 0.0 | 0.0 | 0.00 | 0.00 | 0.00 | 99 | 1010.4 |
| 20260901101635 | 53 | 337 | 0.0 | 0.0 | 0.00 | 0.00 | 0.00 | 99 | 1010.5 |
| 20260901101134 | 53 | 337 | 0.0 | 0.0 | 0.00 | 0.00 | 0.00 | 99 | 1010.8 |
| 20260901100629 | 53 | 336 | 0.0 | 0.0 | 0.00 | 0.00 | 0.00 | 99 | 1010.5 |
| 20260901100124 | 53 | 332 | 0.0 | 0.0 | 0.00 | 0.00 | 0.00 | 99 | 1010.6 |
| 20260901095622 | 53 | 333 | 0.0 | 0.0 | 0.00 | 0.00 | 0.00 | 99 | 1010.6 |
| 20260901095120 | 53 | 335 | 0.0 | 0.0 | 0.00 | 0.00 | 0.00 | 99 | 1010.6 |
| 20260901094615 | 53 | 340 | 0.0 | 0.0 | 0.00 | 0.00 | 0.00 | 99 | 1010.5 |
| 20260901094115 | 53 | 342 | 0.0 | 0.0 | 0.00 | 0.00 | 0.00 | 99 | 1010.4 |
| 20260901093610 | 53 | 331 | 0.0 | 0.0 | 0.00 | 0.00 | 0.00 | 99 | 1010.6 |
| 20260901093104 | 53 | 343 | 0.0 | 0.0 | 0.00 | 0.00 | 0.00 | 99 | 1010.5 |
| 20260901092600 | 53 | 327 | 0.0 | 0.0 | 0.00 | 0.00 | 0.00 | 99 | 1010.3 |
| 20260901092056 | 53 | 326 | 0.0 | 0.0 | 0.00 | 0.00 | 0.00 | 99 | 1010.2 |
| 20260901091551 | 54 | 327 | 0.0 | 0.0 | 0.00 | 0.00 | 0.00 | 99 | 1010.3 |
| 20260901091052 | 54 | 326 | 0.0 | 0.0 | 0.00 | 0.00 | 0.00 | 99 | 1010.3 |
| 20260901090551 | 53 | 329 | 0.0 | 0.0 | 0.00 | 0.00 | 0.00 | 99 | 1010.4 |
| 20260901090047 | 54 | 330 | 0.0 | 0.0 | 0.00 | 0.00 | 0.00 | 99 | 1010.4 |
| 20260901085542 | 54 | 330 | 0.0 | 0.0 | 0.00 | 0.00 | 0.00 | 99 | 1010.3 |
| 20260901085038 | 54 | 329 | 0.0 | 0.0 | 0.00 | 0.00 | 0.00 | 99 | 1010.2 |
| 20260901084534 | 54 | 333 | 0.0 | 0.0 | 0.00 | 0.00 | 0.00 | 99 | 1010.2 |
| 20260901084030 | 54 | 333 | 0.0 | 0.0 | 0.00 | 0.00 | 0.00 | 99 | 1010.3 |
| 20260901083524 | 54 | 334 | 0.0 | 0.0 | 0.00 | 0.00 | 0.00 | 99 | 1010.2 |
| 20260901083022 | 54 | 333 | 0.0 | 0.0 | 0.00 | 0.00 | 0.00 | 99 | 1010.2 |
| 20260901082518 | 54 | 319 | 0.0 | 0.0 | 0.00 | 0.00 | 0.00 | 99 | 1010.1 |
| 20260901082013 | 55 | 332 | 0.0 | 0.0 | 0.00 | 0.00 | 0.00 | 99 | 1010.1 |
| 20260901081508 | 55 | 335 | 0.0 | 0.0 | 0.00 | 0.00 | 0.00 | 99 | 1010.3 |
| 20260901081002 | 55 | 319 | 0.0 | 0.0 | 0.00 | 0.00 | 0.00 | 99 | 1010.1 |
| 20260901080456 | 55 | 318 | 0.0 | 0.0 | 0.00 | 0.00 | 0.00 | 99 | 1010.1 |
| 20260901075956 | 55 | 336 | 0.0 | 0.0 | 0.00 | 0.00 | 0.00 | 99 | 1010.1 |
| 20260901075452 | 55 | 324 | 0.0 | 0.0 | 0.00 | 0.00 | 0.00 | 99 | 1010.2 |
| 20260901074950 | 55 | 341 | 0.0 | 0.0 | 0.00 | 0.00 | 0.00 | 99 | 1010.1 |
| 20260901074445 | 55 | 255 | 1.0 | 1.0 | 0.00 | 0.00 | 0.00 | 99 | 1010.0 |
| 20260901073940 | 55 | 340 | 0.0 | 0.0 | 0.00 | 0.00 | 0.00 | 99 | 1010.2 |
| 20260901073437 | 55 | 330 | 0.0 | 0.0 | 0.00 | 0.00 | 0.00 | 99 | 1010.3 |
| 20260901072937 | 55 | 330 | 0.0 | 0.0 | 0.00 | 0.00 | 0.00 | 99 | 1010.1 |
| 20260901072432 | 55 | 330 | 0.0 | 0.0 | 0.00 | 0.00 | 0.00 | 99 | 1010.3 |
| 20260901071927 | 55 | 330 | 0.0 | 0.0 | 0.00 | 0.00 | 0.00 | 99 | 1010.2 |
| 20260901071426 | 54 | 331 | 0.0 | 0.0 | 0.00 | 0.00 | 0.00 | 99 | 1010.3 |
| 20260901070920 | 55 | 332 | 0.0 | 0.0 | 0.00 | 0.00 | 0.00 | 99 | 1010.3 |
| 20260901070415 | 55 | 331 | 0.0 | 0.0 | 0.00 | 0.00 | 0.00 | 99 | 1010.5 |
| 20260901065914 | 54 | 331 | 0.0 | 0.0 | 0.00 | 0.00 | 0.00 | 99 | 1010.3 |
| 20260901065410 | 54 | 331 | 0.0 | 0.0 | 0.00 | 0.00 | 0.00 | 99 | 1010.4 |
| 20260901064905 | 54 | 331 | 0.0 | 0.0 | 0.00 | 0.00 | 0.00 | 99 | 1010.4 |
| 20260901064401 | 54 | 331 | 0.0 | 0.0 | 0.00 | 0.00 | 0.00 | 99 | 1010.4 |
| 20260901063858 | 55 | 331 | 0.0 | 0.0 | 0.00 | 0.00 | 0.00 | 99 | 1010.2 |
| 20260901063354 | 55 | 331 | 0.0 | 0.0 | 0.00 | 0.00 | 0.00 | 99 | 1010.4 |
| 20260901062850 | 55 | 332 | 0.0 | 0.0 | 0.00 | 0.00 | 0.00 | 99 | 1010.2 |
| 20260901062346 | 54 | 331 | 0.0 | 0.0 | 0.00 | 0.00 | 0.00 | 99 | 1010.3 |
| 20260901061841 | 55 | 332 | 0.0 | 0.0 | 0.00 | 0.00 | 0.00 | 99 | 1010.3 |
| 20260901061336 | 55 | 332 | 0.0 | 0.0 | 0.00 | 0.00 | 0.00 | 99 | 1010.2 |
| 20260901060831 | 55 | 332 | 0.0 | 0.0 | 0.00 | 0.00 | 0.00 | 99 | 1010.4 |
| 20260901060328 | 56 | 332 | 0.0 | 0.0 | 0.00 | 0.00 | 0.00 | 99 | 1010.4 |
| 20260901055827 | 56 | 331 | 0.0 | 0.0 | 0.00 | 0.00 | 0.00 | 99 | 1010.3 |
| 20260901055323 | 56 | 332 | 0.0 | 0.0 | 0.00 | 0.00 | 0.00 | 99 | 1010.1 |
| 20260901054820 | 56 | 332 | 0.0 | 0.0 | 0.00 | 0.00 | 0.00 | 99 | 1010.4 |
| 20260901054317 | 56 | 332 | 0.0 | 0.0 | 0.00 | 0.00 | 0.00 | 99 | 1010.5 |
| 20260901053813 | 56 | 324 | 0.0 | 0.0 | 0.00 | 0.00 | 0.00 | 99 | 1010.3 |
| 20260901053308 | 56 | 336 | 0.0 | 0.0 | 0.00 | 0.00 | 0.00 | 99 | 1010.4 |
| 20260901052803 | 56 | 335 | 0.0 | 0.0 | 0.00 | 0.00 | 0.00 | 99 | 1010.4 |
| 20260901052259 | 56 | 336 | 0.0 | 0.0 | 0.00 | 0.00 | 0.00 | 99 | 1010.3 |
| 20260901051757 | 56 | 336 | 0.0 | 0.0 | 0.00 | 0.00 | 0.00 | 99 | 1010.2 |
| 20260901051252 | 57 | 336 | 0.0 | 0.0 | 0.00 | 0.00 | 0.00 | 99 | 1010.1 |
| 20260901050747 | 57 | 336 | 0.0 | 0.0 | 0.00 | 0.00 | 0.00 | 99 | 1010.2 |
| 20260901050243 | 57 | 336 | 0.0 | 0.0 | 0.00 | 0.00 | 0.00 | 99 | 1010.4 |
| 20260901045738 | 57 | 336 | 0.0 | 0.0 | 0.00 | 0.00 | 0.00 | 99 | 1010.1 |
| 20260901045232 | 57 | 336 | 0.0 | 0.0 | 0.00 | 0.00 | 0.00 | 99 | 1010.3 |
| 20260901044728 | 58 | 336 | 0.0 | 0.0 | 0.00 | 0.00 | 0.00 | 99 | 1010.0 |
| 20260901044224 | 58 | 336 | 0.0 | 0.0 | 0.00 | 0.00 | 0.00 | 99 | 1010.2 |
| 20260901043720 | 58 | 336 | 0.0 | 0.0 | 0.00 | 0.00 | 0.00 | 99 | 1010.1 |
| 20260901043215 | 58 | 338 | 0.0 | 0.0 | 0.00 | 0.00 | 0.00 | 99 | 1010.0 |
| 20260901042714 | 0 | 0.0 | 0.0 | 0.00 | 0.00 | 0.00 | 1010.2 | ||
| 20260901042209 | 59 | 338 | 0.0 | 0.0 | 0.00 | 0.00 | 0.00 | 98 | 1010.1 |
| 20260901041705 | 59 | 338 | 0.0 | 0.0 | 0.00 | 0.00 | 0.00 | 98 | 1010.0 |
| 20260901041205 | 59 | 338 | 0.0 | 0.0 | 0.00 | 0.00 | 0.00 | 97 | 1009.9 |
| 20260901040700 | 59 | 338 | 0.0 | 0.0 | 0.00 | 0.00 | 0.00 | 95 | 1009.8 |
| 20260901040158 | 59 | 338 | 0.0 | 0.0 | 0.00 | 0.00 | 0.00 | 95 | 1010.1 |
| 20260901035657 | 60 | 338 | 0.0 | 0.0 | 0.00 | 0.00 | 0.00 | 95 | 1010.1 |
| 20260901035156 | 61 | 338 | 0.0 | 0.0 | 0.00 | 0.00 | 0.00 | 94 | 1009.9 |
| 20260901034650 | 62 | 338 | 0.0 | 0.0 | 0.00 | 0.00 | 0.00 | 93 | 1010.1 |
| 20260901034150 | 62 | 338 | 0.0 | 0.0 | 0.00 | 0.00 | 0.00 | 92 | 1009.8 |
| 20260901033650 | 63 | 338 | 0.0 | 0.0 | 0.00 | 0.00 | 0.00 | 91 | 1010.0 |
| 20260901033149 | 64 | 338 | 0.0 | 0.0 | 0.00 | 0.00 | 0.00 | 87 | 1010.0 |
| 20260901032648 | 64 | 341 | 0.0 | 0.0 | 0.00 | 0.00 | 0.00 | 87 | 1009.9 |
| 20260901032143 | 64 | 341 | 0.0 | 0.0 | 0.00 | 0.00 | 0.00 | 87 | 1009.9 |
| 20260901031638 | 64 | 339 | 0.0 | 0.0 | 0.00 | 0.00 | 0.00 | 86 | 1009.9 |
| 20260901031135 | 64 | 335 | 0.0 | 0.0 | 0.00 | 0.00 | 0.00 | 86 | 1010.0 |
| 20260901030635 | 64 | 334 | 1.0 | 1.0 | 0.00 | 0.00 | 0.00 | 86 | 1009.9 |
| 20260901030129 | 65 | 333 | 0.0 | 0.0 | 0.00 | 0.00 | 0.00 | 85 | 1009.9 |
| 20260901025623 | 66 | 337 | 0.0 | 0.0 | 0.00 | 0.00 | 0.00 | 84 | 1009.8 |
| 20260901025118 | 66 | 338 | 0.0 | 0.0 | 0.00 | 0.00 | 0.00 | 84 | 1009.8 |
| 20260901024613 | 66 | 338 | 0.0 | 0.0 | 0.00 | 0.00 | 0.00 | 84 | 1009.8 |
| 20260901024111 | 66 | 338 | 0.0 | 0.0 | 0.00 | 0.00 | 0.00 | 84 | 1010.0 |
| 20260901023610 | 66 | 343 | 0.0 | 0.0 | 0.00 | 0.00 | 0.00 | 84 | 1010.0 |
| 20260901023106 | 67 | 349 | 1.0 | 1.0 | 0.00 | 0.00 | 0.00 | 83 | 1010.0 |
| 20260901022601 | 67 | 336 | 0.0 | 0.0 | 0.00 | 0.00 | 0.00 | 85 | 1009.7 |
| 20260901022056 | 67 | 336 | 0.0 | 0.0 | 0.00 | 0.00 | 0.00 | 83 | 1010.0 |
| 20260901021552 | 67 | 336 | 0.0 | 1.0 | 0.00 | 0.00 | 0.00 | 83 | 1009.8 |
| 20260901021047 | 68 | 336 | 0.0 | 1.0 | 0.00 | 0.00 | 0.00 | 81 | 1010.1 |
| 20260901020542 | 68 | 337 | 0.0 | 0.0 | 0.00 | 0.00 | 0.00 | 80 | 1009.8 |
| 20260901020037 | 68 | 337 | 0.0 | 0.0 | 0.00 | 0.00 | 0.00 | 82 | 1010.0 |
| 20260901015532 | 68 | 331 | 0.0 | 0.0 | 0.00 | 0.00 | 0.00 | 81 | 1009.9 |
| 20260901015027 | 69 | 333 | 1.0 | 1.0 | 0.00 | 0.00 | 0.00 | 81 | 1010.1 |
| 20260901014522 | 69 | 335 | 0.0 | 0.0 | 0.00 | 0.00 | 0.00 | 82 | 1009.9 |
| 20260901014019 | 69 | 331 | 0.0 | 0.0 | 0.00 | 0.00 | 0.00 | 81 | 1009.9 |
| 20260901013514 | 69 | 330 | 0.0 | 0.0 | 0.00 | 0.00 | 0.00 | 80 | 1010.0 |
| 20260901013010 | 70 | 329 | 0.0 | 0.0 | 0.00 | 0.00 | 0.00 | 78 | 1010.1 |
| 20260901012509 | 70 | 328 | 1.0 | 1.0 | 0.00 | 0.00 | 0.00 | 77 | 1010.0 |
| 20260901012004 | 71 | 328 | 0.0 | 0.0 | 0.00 | 0.00 | 0.00 | 77 | 1009.9 |
| 20260901011501 | 72 | 337 | 0.0 | 0.0 | 0.00 | 0.00 | 0.00 | 74 | 1010.1 |
| 20260901010958 | 72 | 337 | 0.0 | 0.0 | 0.00 | 0.00 | 0.00 | 74 | 1009.9 |
| 20260901010454 | 72 | 318 | 0.0 | 0.0 | 0.00 | 0.00 | 0.00 | 69 | 1009.9 |
| 20260901005953 | 73 | 330 | 0.0 | 0.0 | 0.00 | 0.00 | 0.00 | 70 | 1010.0 |
| 20260901005448 | 74 | 331 | 0.0 | 0.0 | 0.00 | 0.00 | 0.00 | 63 | 1010.1 |
| 20260901004943 | 74 | 325 | 0.0 | 0.0 | 0.00 | 0.00 | 0.00 | 62 | 1009.8 |
| 20260901004442 | 74 | 317 | 0.0 | 0.0 | 0.00 | 0.00 | 0.00 | 64 | 1010.0 |
| 20260901003937 | 74 | 296 | 0.0 | 0.0 | 0.00 | 0.00 | 0.00 | 64 | 1010.1 |
| 20260901003432 | 74 | 319 | 0.0 | 0.0 | 0.00 | 0.00 | 0.00 | 65 | 1009.9 |
| 20260901002931 | 75 | 346 | 0.0 | 0.0 | 0.00 | 0.00 | 0.00 | 65 | 1010.0 |
| 20260901002430 | 75 | 323 | 0.0 | 0.0 | 0.00 | 0.00 | 0.00 | 63 | 1010.2 |
| 20260901001925 | 76 | 327 | 2.0 | 2.0 | 0.00 | 0.00 | 0.00 | 61 | 1010.3 |
| 20260901001420 | 77 | 327 | 1.0 | 1.0 | 0.00 | 0.00 | 0.00 | 58 | 1009.9 |
| 20260901000916 | 77 | 329 | 0.0 | 0.0 | 0.00 | 0.00 | 0.00 | 61 | 1010.4 |
| 20260901000412 | 77 | 310 | 0.0 | 0.0 | 0.00 | 0.00 | 0.00 | 64 | 1010.2 |
| 20260831235909 | 76 | 278 | 0.0 | 1.0 | 0.00 | 0.00 | 0.00 | 59 | 1010.2 |
| 20260831235406 | 76 | 45 | 1.0 | 1.0 | 0.00 | 0.00 | 0.00 | 57 | 1010.3 |
| 20260831234906 | 77 | 322 | 1.0 | 2.0 | 0.00 | 0.00 | 0.00 | 57 | 1010.3 |
| 20260831234400 | 76 | 319 | 0.0 | 1.0 | 0.00 | 0.00 | 0.00 | 57 | 1010.5 |
| 20260831233856 | 76 | 38 | 1.0 | 2.0 | 0.00 | 0.00 | 0.00 | 56 | 1010.7 |
| 20260831233351 | 76 | 346 | 0.0 | 0.0 | 0.00 | 0.00 | 0.00 | 62 | 1010.6 |
| 20260831232846 | 76 | 285 | 0.0 | 0.0 | 0.00 | 0.00 | 0.00 | 59 | 1010.6 |
| 20260831232342 | 76 | 151 | 2.0 | 3.0 | 0.00 | 0.00 | 0.00 | 60 | 1011.0 |
| 20260831231838 | 76 | 349 | 0.0 | 1.0 | 0.00 | 0.00 | 0.00 | 61 | 1010.8 |
| 20260831231334 | 76 | 338 | 0.0 | 0.0 | 0.00 | 0.00 | 0.00 | 58 | 1010.8 |
| 20260831230829 | 76 | 143 | 2.0 | 5.0 | 0.00 | 0.00 | 0.00 | 56 | 1010.7 |
| 20260831230324 | 76 | 3 | 1.0 | 1.0 | 0.00 | 0.00 | 0.00 | 58 | 1011.0 |
| 20260831225824 | 77 | 133 | 2.0 | 2.0 | 0.00 | 0.00 | 0.00 | 60 | 1011.1 |
| 20260831225318 | 76 | 316 | 0.0 | 0.0 | 0.00 | 0.00 | 0.00 | 59 | 1011.2 |
| 20260831224814 | 76 | 329 | 1.0 | 2.0 | 0.00 | 0.00 | 0.00 | 59 | 1011.3 |
| 20260831224309 | 76 | 260 | 0.0 | 1.0 | 0.00 | 0.00 | 0.00 | 58 | 1011.3 |
| 20260831223804 | 75 | 325 | 0.0 | 0.0 | 0.00 | 0.00 | 0.00 | 60 | 1011.3 |
| 20260831223300 | 76 | 316 | 1.0 | 1.0 | 0.00 | 0.00 | 0.00 | 56 | 1011.4 |